Погода в Уголке

Россия / Республика Мордовия     54°01′03″N   42°51′33″E
темп.,
°C
ветер,
м/с
пор.,
м/с
влажн.,
%
обл.,
%
осадки,
мм/ч
давл.,
гПа
погр.,
м
17 октября, вс
вс1700:00+9ююз51159100 0.0 1017996
03:00+9юз4106276 0.0 1016524
06:00+5юз377976 0.0 1017175
09:00+8юз377373 0.0 1017329
12:00+11зюз466297 0.0 10161052
15:00+12зюз465481 0.0 10151179
18:00+7зюз2372100 0.0 101551
21:00+6зюз257615 0.0 101597
18 октября, пн
пн1800:00+5зюз258333 0.0 1015106
03:00+4юз2391100 0.0 101466
06:00+3юз269552 0.0 1013120
09:00+6юз387977 0.0 1013352
12:00+10зюз575674 0.0 10121140
15:00+10зюз5857100 0.0 10101405
18:00+8зюз4869100 0.1 1011689
21:00+5з3986100 0.3 1011381
19 октября, вт
вт1900:00+4з2491100 0.4 101297
03:00+3з2394100 0.4 101289
06:00+3з2490100 0.0 1012121
09:00+4зсз3478100 0.0 1012373
12:00+6сз346168 0.0 10121104
15:00+6сз3561100 0.1 10121054
18:00+4сз477174 0.1 1014808
21:00+2сз378481 0.1 1015301
20 октября, ср
ср2000:000сз399483 0.1 1016317
03:000сз4109399 0.1 1017516
06:000сз399265 0.0 1019442
09:00+1сз4783100 0.0 1020699
12:00+1сз4779100 0.1 1021727
15:00+3сз356996 0.1 1021971
18:000сз25835 0.1 1023151
21:00−2зсз228437 0.1 102325
21 октября, чт
чт2100:00−3ююз22805 0.0 102232
03:00−2ююз376934 0.0 1022154
06:00−1ююз41174100 0.0 1020301
09:00+3ююз51362100 0.0 1018452
12:00+5ююз61558100 0.1 1016716
15:00+6ююз7165771 0.1 1013783
18:00+7ююз71757100 0.0 1011710
21:00+7юз71860100 0.0 1010742